{"data":{"norad_id":62776,"intl_designator":"2025-015U","name":"STARLINK-33570","alt_names":[],"object_type":"PAYLOAD","status":"ACTIVE","operator":null,"country":"US","launch_date":"2025-01-21","launch_site_code":"AFWTR","launch_vehicle":null,"mission":null,"orbit_class":"UNKNOWN","rcs_meters":null,"size_class":null,"mass_kg":null,"dimensions":null,"purposes":["comms"],"wikipedia_slug":null,"has_3d_model":false,"image_url":null,"decayed_at":null,"tle_current":{"epoch":"2026-09-21T08:09:55.789920Z","epoch_age_seconds":98713,"freshness":"FRESH","line1":"1 62776U 25015U   26264.34022905  .00023461  00000+0  70232-3 0  9998","line2":"2 62776  53.1575 129.5993 0002044  79.9031 280.2202 15.34444426 94436","mean_motion":15.34444426,"eccentricity":0.0002044,"inclination_deg":53.1575,"raan_deg":129.5993,"arg_perigee_deg":79.9031,"mean_anomaly_deg":280.2202,"bstar":0.00070232,"rev_number":9443,"period_min":93.845040954256,"perigee_km":461.17295920251,"apogee_km":463.96944071466,"semimajor_km":6840.7081999586,"source":"CELESTRAK","updated_at":"2026-09-22T09:00:49.664283Z"}}}